Tracking 25656 objects as of 21-May-2022
HD Live streaming from Space Station
objects crossing your sky now

CZ-3 R/B

Track CZ-3 R/B now!
10-day predictions


NORAD ID: 20559
Int'l Code: 1990-030B
Perigee: 221.1 km
Apogee: 14,598.4 km
Inclination: 30.8 °
Period: 268.3 minutes
Semi major axis: 13780 km
RCS: 10.1665 m2 (large)
Launch date: April 7, 1990
Source: People's Republic of China (PRC)
Launch site: Xichang Space Center, China (XSC)

Note: This is a ROCKET BODY
aabbcc
Your satellite tracking list
Your tracking list is empty




NASA's NSSDC Master Catalog

Two Line Element Set (TLE):
1 20559U 90030B   22140.66369330  .00048155  00000-0  14620-2 0  9996
2 20559  30.8201 341.6372 5216456 173.1851 198.4698  5.36654701423267
Source of the keplerian elements: AFSPC